DW4465 Weather Reports


Display with metric or nautical units.
time (UTC)temp
F
wind
direction
speed
MPH
gust
MPH
rain 1hr
in
rain 24hr
in
rain mn
in
humidity
%
barometer
mb
20260503024543 65 0 1.0 3.0 0.00 0.00 0.00 70 1011.0
20260503023038 66 0 0.0 4.0 0.00 0.00 0.00 69 1010.7
20260503021545 67 302 0.0 3.0 0.00 0.00 0.00 68 1010.7
20260503020048 68 188 1.0 4.0 0.00 0.00 0.00 66 1010.5
20260503014544 69 192 1.0 4.0 0.00 0.00 0.00 65 1010.5
20260503013043 69 0 0.0 3.0 0.00 0.00 0.00 65 1010.5
20260503011543 69 25 0.0 3.0 0.00 0.00 0.00 64 1010.4
20260503010044 70 290 1.0 5.0 0.00 0.00 0.00 63 1010.4
20260503004546 70 360 2.0 5.0 0.00 0.00 0.00 62 1010.4
20260503003056 72 263 1.0 4.0 0.00 0.00 0.00 61 1010.4
20260503001557 71 0 1.0 5.0 0.00 0.00 0.00 63 1010.6
20260502234550 72 286 1.0 7.0 0.00 0.00 0.00 61 1010.7
20260502233106 72 327 1.0 7.0 0.00 0.00 0.00 61 1010.7
20260502231604 73 278 2.0 8.0 0.00 0.00 0.00 60 1010.9
20260502230040 73 299 2.0 5.0 0.00 0.00 0.00 60 1010.9
20260502224550 73 331 1.0 7.0 0.00 0.00 0.00 61 1011.3
20260502223044 74 234 2.0 6.0 0.00 0.00 0.00 61 1011.6
20260502221555 72 148 4.0 10.0 0.00 0.00 0.00 66 1011.8
20260502220044 72 192 3.0 9.0 0.00 0.00 0.00 64 1012.2
20260502214538 70 200 4.0 10.0 0.00 0.00 0.00 67 1012.5
20260502213048 69 235 4.0 12.0 0.00 0.00 0.00 68 1012.8
20260502211545 70 210 5.0 10.0 0.00 0.00 0.00 67 1013.0
20260502210044 69 160 6.0 10.0 0.00 0.00 0.00 69 1013.1
20260502204547 71 208 5.0 10.0 0.00 0.00 0.00 67 1013.1
20260502203038 70 218 3.0 9.0 0.00 0.00 0.00 69 1013.1
20260502201546 69 203 4.0 11.0 0.00 0.00 0.00 69 1013.3
20260502200043 70 226 3.0 10.0 0.00 0.00 0.00 69 1013.5
20260502194545 69 182 2.0 6.0 0.00 0.00 0.00 69 1013.6
20260502193038 69 188 2.0 8.0 0.00 0.00 0.00 71 1013.6
20260502191538 68 185 4.0 7.0 0.00 0.00 0.00 72 1014.1
20260502190049 66 0 0.0 4.0 0.00 0.00 0.00 78 1014.4
20260502184542 65 228 0.0 3.0 0.00 0.00 0.00 81 1014.5
20260502183042 64 222 1.0 2.0 0.00 0.00 0.00 83 1014.6
20260502181538 64 106 0.0 3.0 0.00 0.00 0.00 84 1014.5
20260502163042 61 176 2.0 5.0 0.00 0.00 0.00 87 1015.3
20260502161539 60 0 0.0 1.0 0.00 0.00 0.00 88 1015.2
20260502151542 60 186 0.0 2.0 0.00 0.00 0.00 88 1015.0
20260502123038 60 232 1.0 4.0 0.00 0.00 0.00 87 1013.9
20260502121545 59 0 0.0 0.0 0.00 0.00 0.00 87 1013.9
20260502114544 59 0 0.0 3.0 0.00 0.00 0.00 87 1013.8
20260502113042 59 197 0.0 2.0 0.00 0.00 0.00 87 1013.6
20260502111539 59 0 0.0 3.0 0.00 0.00 0.00 87 1013.6
20260502110041 58 0 0.0 2.0 0.00 0.00 0.00 86 1013.8
20260502104547 58 0 0.0 1.0 0.00 0.00 0.00 86 1013.5
20260502103037 58 0 0.0 1.0 0.00 0.00 0.00 86 1013.4
20260502101540 57 0 0.0 1.0 0.00 0.00 0.00 86 1013.5
20260502070041 59 0 0.0 0.0 0.00 0.00 0.00 83 1014.4
20260502064541 59 0 0.0 0.0 0.00 0.00 0.00 83 1014.3
20260502063045 59 0 0.0 1.0 0.00 0.00 0.00 83 1014.4
20260502061542 60 0 0.0 2.0 0.00 0.00 0.00 83 1014.2
20260502060042 60 0 0.0 1.0 0.00 0.00 0.00 83 1014.1
20260502054546 60 331 0.0 2.0 0.00 0.00 0.00 82 1014.1
20260502053045 61 309 0.0 3.0 0.00 0.00 0.00 82 1014.2
20260502051612 61 0 0.0 3.0 0.00 0.00 0.00 82 1014.3
20260502050047 61 0 0.0 3.0 0.00 0.00 0.00 81 1014.1
20260502044541 61 0 0.0 3.0 0.00 0.00 0.00 81 1014.1
20260502043044 61 0 0.0 3.0 0.00 0.00 0.00 81 1013.8
20260502041549 62 0 1.0 3.0 0.00 0.00 0.00 80 1013.6
20260502040051 62 0 0.0 4.0 0.00 0.00 0.00 80 1013.4
20260502034547 62 0 0.0 3.0 0.00 0.00 0.00 79 1013.1
20260502033050 62 288 1.0 3.0 0.00 0.00 0.00 79 1012.9
20260502031559 63 309 0.0 4.0 0.00 0.00 0.00 78 1012.8
20260502030039 63 0 1.0 4.0 0.00 0.00 0.00 77 1012.8